星链-36464(STARLINK-36464)

导读 | 豆包AI

STARLINK-36464是美国SpaceX星链星座的一员,于2026年1月12日发射入轨。星链星座旨在构建全球卫星互联网,为全球范围用户提供高速低延迟网络服务。该卫星延续星链设计标准,将服务偏远地区网络覆盖,也为特殊场景通信需求提供支撑,进一步扩充了星链星座的在轨规模与服务能力。

基本信息
目录编号:
67428
目录名称:
STARLINK-36464
国际标识:
2026-005AA
轨道中心:
EARTH
卫星名称:
星链-36464
卫星全名:
星链-36464(STARLINK-36464)
卫星状态:
在轨 (已飞行82 天)
发射日期:
2026-01-12 UTC
国别 :
美国 (US)
星等 :
--
轨道信息
数据来源 国际轨道数据
星历时间: 2026-04-03T17:11:45+0800
15小时前
查看轨道信息
半长轴: 6861.127km
偏心率: 0.0001401
轨道倾角: 42.996°
近地点辐角 257.450°
升交点赤经 98.466°
平近点角 102.619°
近地点: 482.028km
远地点: 483.952km
周期: 94.266分钟
每日圈数: 15.275999
详细信息
固有亮度:
5
最大亮度:
2.5
卫星平台:
Starlink V1.0
覆盖范围:
全球
运营商:
太空探索技术公司
运营商所在国:
美国
制造商(研发单位):
太空探索技术公司
制造商所在国:
美国
使用方式:
暂无
卫星简介
Starlink 计划是 SpaceX 推出的全球卫星互联网项目,通过发射低轨道卫星,为全球尤其是偏远地区提供高速、低延迟的互联网服务。自 2019 年起,Starlink 已部署数千颗卫星,旨在缩小全球数字鸿沟,推动互联网普及。该项目还为军事、航空等行业提供通信支持,带来广泛经济效益。
2D轨道图
3D轨道图
轨道高度分析图
轨道倾角分析图
轨道综合分析图
查看轨道综合分析图